Terug naar catalogus

STARLINK-34237

ActiefCommunicatieVLEO
NORAD 64194·PAYLOAD·🇺🇸 United States

Gelanceerd May 28, 2025 vanaf Cape Canaveral Space Force Station

Loading…

Volgende Passages (komende 24 uur)

TLE

VersSource: CelesTrak SupGP

Epoch: Sep 14, 2026, 20:43 UTC

1 64194C 25113AA  26257.86368056  .00009727  00000+0  31289-3 0  2577
2 64194  53.1589 290.8447 0001196  74.2767 187.2092 15.31688685    12

Volg STARLINK-34237 in realtime met AllMySat

Download on the App Store